Hourly Data Report for July 15, 2003

SHERBROOKE A
QUEBEC

45°26'00.000" N
71°41'00.000" W
241.40 m
7028124
71610
YSC

Download Data

Hourly Data (July 2003)
Hourly Data Report for July 15, 2003
TIME
LST
Temp Definition
°C
Dew Point Definition
°C
Rel Hum Definition
%
Precip. Amount Definition
mm

Wind Dir Definition
10's deg

Wind Spd Definition
km/h
Visibility Definition
km
Stn Press Definition
kPa
Hmdx Definition


Wind Chill Definition


Weather Definition


00:00 12.0 11.0 94     0 15.0 99.22      
01:00 12.0 11.1 94   9 7 15.0 99.18      
02:00 11.7 10.7 94   8 4 15.0 99.17      
03:00 10.8 9.9 94   7 4 15.0 99.15      
04:00 11.1 10.2 94   9 6 15.0 99.14      
05:00 11.4 10.6 95     0 15.0 99.19      
06:00 13.3 11.8 91     0 15.0 99.24      
07:00 17.7 13.8 78     0 24.1 99.25     Mainly Clear
08:00 20.6 14.4 68     0 24.1 99.21     Mainly Clear
09:00 23.0 14.1 57   20 6 24.1 99.14 26   Mainly Clear
10:00 25.0 15.4 55   24 7 24.1 99.08 29   Mainly Clear
11:00 26.2 14.7 49   13 13 24.1 99.05 30   Mainly Clear
12:00 27.1 13.8 44   22 9 24.1 98.99 30   Mainly Clear
13:00 28.0 15.3 46   27 7 24.1 98.89 32   Mainly Clear
14:00 28.8 15.0 43   24 13 24.1 98.82 33   Mainly Clear
15:00 28.6 14.3 42   24 13 24.1 98.74 32   Mainly Clear
16:00 28.2 14.0 42   26 9 24.1 98.68 32   Mainly Clear
17:00 27.9 13.0 40   25 13 15.0 98.62 31    
18:00 27.1 13.8 44     0 15.0 98.57 30    
19:00 22.5 16.7 70   13 6 15.0 98.57 28    
20:00 18.7 14.8 78   15 9 15.0 98.57      
21:00 18.8 13.5 71   11 9 15.0 98.59      
22:00 17.0 14.0 82     0 15.0 98.59      
23:00 17.0 13.7 81   6 4 15.0 98.59      

Notes on Data Quality.

Legend

  • E = Estimated
  • M = Missing
  • NA = Not Available*
  • [empty] = Indicates an unobserved value
Date modified: